OPS 7323 (DMSP 5B F3)

Satellite information

Favourite Embed

Satellite Type and Status

PAYLOADIN ORBIT

Key statistics

Satellite OPS 7323 (DMSP 5B F3) at a glance.

Uptime

19392

Days in orbit

Revolutions

≈ 14.3

Per day

Orbit

SSO

Sun Synchronous Orbit

Inclination

98.5

Latest

Satellite identification and parameters

Extended collection of information and parameters for OPS 7323 (DMSP 5B F3).

Object identification

Identified? True

Debris? False

Object name: OPS 7323 (DMSP 5B F3)

International designator: 1972-089A

Object number (NORAD): 6275

Object ID (CCSDS): 6275

Country: UNITED STATES OF AMERICA (US)

Current information (Y/N): Y

RCS size: LARGE

Orbital parameters

Period: 100.713 minutes

Inclination: 98.5104 deg

SMA: 7170.523 km

Apoapsis: 817.68 km

Periapsis: 767.095 km

RAAN: 151.6943 deg

Eccentricy: 0.00352732

Argument of periapsis: 150.4321 deg

Mean anomaly: 209.8865 deg

Mean motion: 14.29804104 rev/day

Mean motion (dot): 0.00000635 rev/day2

B* drag term: 0.00026200171 1/REarth

Two-line elements (TLE)

Creation date: Dec. 12, 2025, 10:14 a.m.

Reference frame: TEME

Reference center: EARTH

Epoch: Dec. 12, 2025, 1:14 a.m. UTC

TLE line 0: 0 OPS 7323 (DMSP 5B F3)

TLE line 1: 1 06275U 72089A 25346.05199463 .00000635 00000-0 26200-3 0 9990

TLE line 2: 2 06275 98.5104 151.6943 0035273 150.4321 209.8865 14.29804104757936

Live tracking on map

Real-time ground track for satellite OPS 7323 (DMSP 5B F3).

In-orbit conjunctions

There are no conjunctions computed for OPS 7323 (DMSP 5B F3), at the moment. Check back to stay up to date, as we update our databases every day.

Go to all conjunctions

Associated space launch

Military meteorological satellite

OPS 7323 (DMSP 5B F3) was lifted into orbit during the mission ‘Thor Burner 2A | DSAP-5B F3’, on board a Thor Burner 2A space rocket.

The launch took place on Nov. 9, 1972, 3:23 a.m. from Space Launch Complex 10W.

For more information about the launch, click the button.

Launch to space Thor Burner 2A | DSAP-5B F3
Thor Burner 2A | DSAP-5B F3

Agency: N/A

Status: Launch Successful

Launch date: Nov. 9, 1972, 3:23 a.m. UTC

Rocket: Thor Burner 2A

Launch pad: Space Launch Complex 10W

Location: Vandenberg SFB, CA, USA

...

Latest news about this satellite

There are no fresh news available about this satellite. Check back as we update our databases every day.


Newsletter sign-up

Weekly statistics, charts and insights to help you stay on top of the space industry.